Time,TemperatureF,DewpointF,PressureIn,WindDirection,WindDirectionDegrees,WindSpeedMPH,WindSpeedGustMPH,Humidity,HourlyPrecipIn,Conditions,Clouds,dailyrainin,SolarRadiationWatts/m^2,SoftwareType,DateUTC
2013-10-09 00:00:00,46.4,36.8,29.85,North,5,2.0,2.0,69,0.00,,CLR,0.00,0.00,VWS V14.00,2013-10-09 05:00:00,
2013-10-09 00:05:00,46.1,36.9,29.85,North,5,0.0,2.0,70,0.00,,CLR,0.00,0.00,VWS V14.00,2013-10-09 05:05:00,
2013-10-09 00:10:00,45.9,37.0,29.85,North,5,2.0,2.0,71,0.00,,CLR,0.00,0.00,VWS V14.00,2013-10-09 05:10:00,
2013-10-09 00:15:00,45.9,37.4,29.85,North,5,3.0,4.0,72,0.00,,CLR,0.00,0.00,VWS V14.00,2013-10-09 05:15:00,
2013-10-09 00:20:00,46.1,37.2,29.86,North,5,3.0,4.0,71,0.00,,CLR,0.00,0.00,VWS V14.00,2013-10-09 05:20:00,
2013-10-09 00:25:00,46.9,37.3,29.86,North,5,2.0,4.0,69,0.00,,CLR,0.00,0.00,VWS V14.00,2013-10-09 05:25:00,
2013-10-09 00:30:00,47.4,37.4,29.87,North,5,2.0,2.0,68,0.00,,CLR,0.00,0.00,VWS V14.00,2013-10-09 05:30:00,
2013-10-09 00:35:00,47.3,37.3,29.87,North,5,2.0,3.0,68,0.00,,CLR,0.00,0.00,VWS V14.00,2013-10-09 05:35:00,
2013-10-09 00:40:00,46.9,37.6,29.87,North,5,2.0,3.0,70,0.00,,CLR,0.00,0.00,VWS V14.00,2013-10-09 05:40:00,
2013-10-09 00:45:00,46.5,37.3,29.87,North,5,2.0,3.0,70,0.00,,CLR,0.00,0.00,VWS V14.00,2013-10-09 05:45:00,
2013-10-09 00:50:00,46.3,37.4,29.87,North,5,3.0,3.0,71,0.00,,CLR,0.00,0.00,VWS V14.00,2013-10-09 05:50:00,
2013-10-09 00:55:00,46.1,37.6,29.87,North,5,2.0,3.0,72,0.00,,CLR,0.00,0.00,VWS V14.00,2013-10-09 05:55:00,
2013-10-09 01:00:00,45.9,37.4,29.87,North,5,2.0,3.0,72,0.00,,CLR,0.00,0.00,VWS V14.00,2013-10-09 06:00:00,
2013-10-09 01:05:00,46.0,37.5,29.87,North,5,3.0,4.0,72,0.00,,CLR,0.00,0.00,VWS V14.00,2013-10-09 06:05:00,
2013-10-09 01:10:00,46.0,37.1,29.87,North,5,4.0,4.0,71,0.00,,CLR,0.00,0.00,VWS V14.00,2013-10-09 06:10:00,
2013-10-09 01:15:00,46.2,37.0,29.88,North,5,5.0,5.0,70,0.00,,CLR,0.00,0.00,VWS V14.00,2013-10-09 06:15:00,
2013-10-09 01:20:00,46.5,36.5,29.88,North,355,4.0,6.0,68,0.00,,CLR,0.00,0.00,VWS V14.00,2013-10-09 06:20:00,
2013-10-09 01:25:00,46.6,36.6,29.88,North,355,4.0,6.0,68,0.00,,CLR,0.00,0.00,VWS V14.00,2013-10-09 06:25:00,
2013-10-09 01:30:00,46.5,36.5,29.88,North,355,3.0,4.0,68,0.00,,CLR,0.00,0.00,VWS V14.00,2013-10-09 06:30:00,
2013-10-09 01:35:00,46.1,36.5,29.88,North,355,2.0,4.0,69,0.00,,CLR,0.00,0.00,VWS V14.00,2013-10-09 06:35:00,
2013-10-09 01:40:00,45.8,36.6,29.88,North,355,3.0,4.0,70,0.00,,CLR,0.00,0.00,VWS V14.00,2013-10-09 06:40:00,
2013-10-09 01:46:00,45.5,36.7,29.88,North,355,3.0,4.0,71,0.00,,CLR,0.00,0.00,VWS V14.00,2013-10-09 06:46:00,
2013-10-09 01:51:00,45.2,36.4,29.88,North,355,4.0,5.0,71,0.00,,CLR,0.00,0.00,VWS V14.00,2013-10-09 06:51:00,
2013-10-09 01:56:00,45.1,36.6,29.88,North,355,4.0,5.0,72,0.00,,CLR,0.00,0.00,VWS V14.00,2013-10-09 06:56:00,
2013-10-09 02:01:00,45.2,36.4,29.88,North,355,4.0,5.0,71,0.00,,CLR,0.00,0.00,VWS V14.00,2013-10-09 07:01:00,
2013-10-09 02:06:00,45.7,36.5,29.88,North,355,4.0,6.0,70,0.00,,CLR,0.00,0.00,VWS V14.00,2013-10-09 07:06:00,
2013-10-09 02:11:00,46.1,36.5,29.88,North,355,4.0,6.0,69,0.00,,CLR,0.00,0.00,VWS V14.00,2013-10-09 07:11:00,
2013-10-09 02:16:00,46.1,36.5,29.88,North,355,5.0,6.0,69,0.00,,CLR,0.00,0.00,VWS V14.00,2013-10-09 07:16:00,
2013-10-09 02:21:00,45.4,36.2,29.88,North,355,4.0,6.0,70,0.00,,CLR,0.00,0.00,VWS V14.00,2013-10-09 07:21:00,
2013-10-09 02:26:00,44.9,36.1,29.89,North,355,3.0,6.0,71,0.00,,CLR,0.00,0.00,VWS V14.00,2013-10-09 07:26:00,
2013-10-09 02:31:00,44.5,36.0,29.89,North,355,2.0,3.0,72,0.00,,CLR,0.00,0.00,VWS V14.00,2013-10-09 07:31:00,
2013-10-09 02:36:00,44.5,36.0,29.89,North,355,4.0,4.0,72,0.00,,CLR,0.00,0.00,VWS V14.00,2013-10-09 07:36:00,
2013-10-09 02:41:00,44.6,36.2,29.89,North,355,4.0,5.0,72,0.00,,CLR,0.00,0.00,VWS V14.00,2013-10-09 07:41:00,
2013-10-09 02:46:00,44.7,36.2,29.89,North,355,3.0,5.0,72,0.00,,CLR,0.00,0.00,VWS V14.00,2013-10-09 07:46:00,
2013-10-09 02:51:00,45.0,36.2,29.89,North,355,4.0,5.0,71,0.00,,CLR,0.00,0.00,VWS V14.00,2013-10-09 07:51:00,
2013-10-09 02:56:00,45.2,36.4,29.89,North,355,5.0,6.0,71,0.00,,CLR,0.00,0.00,VWS V14.00,2013-10-09 07:56:00,
2013-10-09 03:01:00,45.1,35.9,29.90,North,355,5.0,5.0,70,0.00,,CLR,0.00,0.00,VWS V14.00,2013-10-09 08:01:00,
2013-10-09 03:06:00,44.7,35.9,29.90,North,355,3.0,5.0,71,0.00,,CLR,0.00,0.00,VWS V14.00,2013-10-09 08:06:00,
2013-10-09 03:11:00,44.3,35.9,29.90,North,355,2.0,5.0,72,0.00,,CLR,0.00,0.00,VWS V14.00,2013-10-09 08:11:00,
2013-10-09 03:16:00,44.1,35.7,29.90,North,355,2.0,5.0,72,0.00,,CLR,0.00,0.00,VWS V14.00,2013-10-09 08:16:00,
2013-10-09 03:21:00,44.0,35.9,29.90,North,355,2.0,5.0,73,0.00,,CLR,0.00,0.00,VWS V14.00,2013-10-09 08:21:00,
2013-10-09 03:26:00,43.9,35.8,29.91,North,355,2.0,5.0,73,0.00,,CLR,0.00,0.00,VWS V14.00,2013-10-09 08:26:00,
2013-10-09 03:31:00,44.0,35.9,29.91,North,355,4.0,4.0,73,0.00,,CLR,0.00,0.00,VWS V14.00,2013-10-09 08:31:00,
2013-10-09 03:36:00,43.9,35.8,29.91,North,355,3.0,4.0,73,0.00,,CLR,0.00,0.00,VWS V14.00,2013-10-09 08:36:00,
2013-10-09 03:41:00,43.8,35.7,29.91,North,355,2.0,4.0,73,0.00,,CLR,0.00,0.00,VWS V14.00,2013-10-09 08:41:00,
2013-10-09 03:46:00,43.7,36.0,29.91,North,355,2.0,4.0,74,0.00,,CLR,0.00,0.00,VWS V14.00,2013-10-09 08:46:00,
2013-10-09 03:51:00,43.7,36.0,29.91,North,355,1.0,4.0,74,0.00,,CLR,0.00,0.00,VWS V14.00,2013-10-09 08:51:00,
2013-10-09 03:56:00,43.7,36.0,29.91,North,355,1.0,4.0,74,0.00,,CLR,0.00,0.00,VWS V14.00,2013-10-09 08:56:00,
2013-10-09 04:01:00,43.6,35.9,29.91,North,355,4.0,4.0,74,0.00,,CLR,0.00,0.00,VWS V14.00,2013-10-09 09:01:00,
2013-10-09 04:06:00,43.5,36.1,29.91,North,355,3.0,4.0,75,0.00,,CLR,0.00,0.00,VWS V14.00,2013-10-09 09:06:00,
2013-10-09 04:11:00,43.7,36.3,29.91,North,355,2.0,4.0,75,0.00,,CLR,0.00,0.00,VWS V14.00,2013-10-09 09:11:00,
2013-10-09 04:16:00,44.1,36.4,29.91,North,355,2.0,4.0,74,0.00,,CLR,0.00,0.00,VWS V14.00,2013-10-09 09:16:00,
2013-10-09 04:21:00,44.3,36.2,29.91,North,355,2.0,4.0,73,0.00,,CLR,0.00,0.00,VWS V14.00,2013-10-09 09:21:00,
2013-10-09 04:26:00,43.8,36.1,29.92,North,355,1.0,4.0,74,0.00,,CLR,0.00,0.00,VWS V14.00,2013-10-09 09:26:00,
2013-10-09 04:31:00,42.9,35.9,29.92,North,355,1.0,2.0,76,0.00,,CLR,0.00,0.00,VWS V14.00,2013-10-09 09:31:00,
2013-10-09 04:37:00,42.5,35.8,29.92,North,355,2.0,3.0,77,0.00,,CLR,0.00,0.00,VWS V14.00,2013-10-09 09:37:00,
2013-10-09 04:42:00,42.3,35.9,29.92,North,355,1.0,3.0,78,0.00,,CLR,0.00,0.00,VWS V14.00,2013-10-09 09:42:00,
2013-10-09 04:47:00,42.3,35.9,29.93,North,355,0.0,3.0,78,0.00,,CLR,0.00,0.00,VWS V14.00,2013-10-09 09:47:00,
2013-10-09 04:52:00,42.4,36.0,29.93,North,355,2.0,3.0,78,0.00,,CLR,0.00,0.00,VWS V14.00,2013-10-09 09:52:00,
2013-10-09 04:57:00,42.3,35.9,29.93,North,355,4.0,4.0,78,0.00,,CLR,0.00,0.00,VWS V14.00,2013-10-09 09:57:00,
2013-10-09 05:02:00,42.3,35.9,29.93,NNW,348,4.0,5.0,78,0.00,,CLR,0.00,0.00,VWS V14.00,2013-10-09 10:02:00,
2013-10-09 05:07:00,41.6,35.3,29.93,NNW,346,4.0,5.0,78,0.00,,CLR,0.00,0.00,VWS V14.00,2013-10-09 10:07:00,
2013-10-09 05:12:00,40.8,35.1,29.93,NNW,346,4.0,5.0,80,0.00,,CLR,0.00,0.00,VWS V14.00,2013-10-09 10:12:00,
2013-10-09 05:17:00,40.3,34.9,29.94,NNW,346,3.0,5.0,81,0.00,,CLR,0.00,0.00,VWS V14.00,2013-10-09 10:17:00,
2013-10-09 05:22:00,40.1,35.1,29.94,NNW,346,4.0,5.0,82,0.00,,CLR,0.00,0.00,VWS V14.00,2013-10-09 10:22:00,
2013-10-09 05:27:00,40.4,35.7,29.94,NNW,346,4.0,5.0,83,0.00,,CLR,0.00,0.00,VWS V14.00,2013-10-09 10:27:00,
2013-10-09 05:32:00,40.6,35.5,29.94,NNW,346,3.0,4.0,82,0.00,,CLR,0.00,0.00,VWS V14.00,2013-10-09 10:32:00,
2013-10-09 05:38:00,40.4,35.3,29.94,NNW,346,3.0,4.0,82,0.00,,CLR,0.00,0.00,VWS V14.00,2013-10-09 10:38:00,
2013-10-09 05:43:00,40.4,35.7,29.94,NNW,346,4.0,4.0,83,0.00,,CLR,0.00,0.00,VWS V14.00,2013-10-09 10:43:00,
2013-10-09 05:48:00,40.7,36.2,29.94,NNW,337,3.0,6.0,84,0.00,,CLR,0.00,0.00,VWS V14.00,2013-10-09 10:48:00,
2013-10-09 05:53:00,41.4,36.6,29.94,NNW,336,5.0,6.0,83,0.00,,CLR,0.00,0.00,VWS V14.00,2013-10-09 10:53:00,
2013-10-09 05:58:00,42.0,36.6,29.94,NNW,336,3.0,6.0,81,0.00,,CLR,0.00,0.00,VWS V14.00,2013-10-09 10:58:00,
2013-10-09 06:03:00,42.0,36.6,29.95,NNW,336,4.0,5.0,81,0.00,,CLR,0.00,0.00,VWS V14.00,2013-10-09 11:03:00,
2013-10-09 06:08:00,41.5,36.1,29.95,NNW,336,3.0,5.0,81,0.00,,CLR,0.00,0.00,VWS V14.00,2013-10-09 11:08:00,
2013-10-09 06:13:00,40.9,35.8,29.95,NNW,336,4.0,5.0,82,0.00,,CLR,0.00,0.00,VWS V14.00,2013-10-09 11:13:00,
2013-10-09 06:18:00,40.5,35.8,29.95,NNW,336,5.0,5.0,83,0.00,,CLR,0.00,0.00,VWS V14.00,2013-10-09 11:18:00,
2013-10-09 06:23:00,40.6,36.2,29.95,NNW,336,4.0,6.0,84,0.00,,CLR,0.00,0.00,VWS V14.00,2013-10-09 11:23:00,
2013-10-09 06:28:00,40.7,36.0,29.95,NNW,336,4.0,6.0,83,0.00,,CLR,0.00,0.00,VWS V14.00,2013-10-09 11:28:00,
2013-10-09 06:33:00,40.7,35.6,29.95,NNW,336,4.0,5.0,82,0.00,,CLR,0.00,0.00,VWS V14.00,2013-10-09 11:33:00,
2013-10-09 06:38:00,40.6,35.8,29.95,NNW,336,4.0,6.0,83,0.00,,CLR,0.00,0.00,VWS V14.00,2013-10-09 11:38:00,
2013-10-09 06:43:00,40.5,35.8,29.95,NNW,337,4.0,6.0,83,0.00,,CLR,0.00,0.00,VWS V14.00,2013-10-09 11:43:00,
2013-10-09 06:48:00,40.6,35.8,29.96,NNW,337,4.0,6.0,83,0.00,,CLR,0.00,0.00,VWS V14.00,2013-10-09 11:48:00,
2013-10-09 06:53:00,40.7,36.0,29.96,NNW,337,3.0,6.0,83,0.00,,CLR,0.00,0.00,VWS V14.00,2013-10-09 11:53:00,
2013-10-09 06:58:00,40.9,36.1,29.96,NNW,337,2.0,6.0,83,0.00,,CLR,0.00,0.00,VWS V14.00,2013-10-09 11:58:00,
2013-10-09 07:04:00,41.2,36.4,29.96,NNW,337,2.0,3.0,83,0.00,,CLR,0.00,0.00,VWS V14.00,2013-10-09 12:04:00,
2013-10-09 07:09:00,41.1,36.0,29.97,NNW,337,1.0,3.0,82,0.00,,CLR,0.00,0.00,VWS V14.00,2013-10-09 12:09:00,
2013-10-09 07:14:00,40.8,35.7,29.97,NNW,337,0.0,3.0,82,0.00,,CLR,0.00,0.00,VWS V14.00,2013-10-09 12:14:00,
2013-10-09 07:19:00,40.4,35.7,29.97,NNW,337,1.0,3.0,83,0.00,,CLR,0.00,0.00,VWS V14.00,2013-10-09 12:19:00,
2013-10-09 07:24:00,39.9,35.5,29.97,NNW,337,2.0,3.0,84,0.00,,CLR,0.00,0.00,VWS V14.00,2013-10-09 12:24:00,
2013-10-09 07:29:00,39.9,35.8,29.98,NNW,337,0.0,3.0,85,0.00,,CLR,0.00,0.00,VWS V14.00,2013-10-09 12:29:00,
2013-10-09 07:34:00,40.1,36.0,29.98,NNW,337,0.0,0.0,85,0.00,,CLR,0.00,0.00,VWS V14.00,2013-10-09 12:34:00,
2013-10-09 07:39:00,40.4,36.3,29.98,NNW,337,0.0,0.0,85,0.00,,CLR,0.00,0.00,VWS V14.00,2013-10-09 12:39:00,
2013-10-09 07:44:00,40.6,36.5,29.98,NNW,337,0.0,0.0,85,0.00,,CLR,0.00,0.00,VWS V14.00,2013-10-09 12:44:00,
2013-10-09 07:49:00,40.9,36.5,29.98,NNW,337,0.0,0.0,84,0.00,,CLR,0.00,0.00,VWS V14.00,2013-10-09 12:49:00,
2013-10-09 07:54:00,41.1,36.3,29.98,NNW,337,0.0,0.0,83,0.00,,CLR,0.00,5.00,VWS V14.00,2013-10-09 12:54:00,
2013-10-09 07:59:00,41.2,36.4,29.98,NNW,337,0.0,0.0,83,0.00,,CLR,0.00,7.00,VWS V14.00,2013-10-09 12:59:00,
2013-10-09 08:04:00,41.3,36.5,29.98,NNW,337,0.0,0.0,83,0.00,,CLR,0.00,9.00,VWS V14.00,2013-10-09 13:04:00,
2013-10-09 08:09:00,41.1,36.3,29.98,NNW,337,0.0,0.0,83,0.00,,CLR,0.00,11.00,VWS V14.00,2013-10-09 13:09:00,
2013-10-09 08:14:00,41.0,36.2,29.99,NNW,337,0.0,0.0,83,0.00,,CLR,0.00,14.00,VWS V14.00,2013-10-09 13:14:00,
2013-10-09 08:19:00,40.9,36.1,29.99,NNW,337,0.0,0.0,83,0.00,,CLR,0.00,23.00,VWS V14.00,2013-10-09 13:19:00,
2013-10-09 08:24:00,40.8,36.0,29.99,NNW,337,1.0,2.0,83,0.00,,CLR,0.00,33.00,VWS V14.00,2013-10-09 13:24:00,
2013-10-09 08:29:00,41.0,36.5,30.00,NNW,337,0.0,2.0,84,0.00,,CLR,0.00,56.00,VWS V14.00,2013-10-09 13:29:00,
2013-10-09 08:34:00,41.3,36.5,30.00,NNW,337,0.0,0.0,83,0.00,,CLR,0.00,58.00,VWS V14.00,2013-10-09 13:34:00,
2013-10-09 08:39:00,41.5,36.7,30.00,NNW,337,0.0,1.0,83,0.00,,CLR,0.00,47.00,VWS V14.00,2013-10-09 13:39:00,
2013-10-09 08:44:00,41.6,36.8,30.00,NNW,337,0.0,2.0,83,0.00,,CLR,0.00,69.00,VWS V14.00,2013-10-09 13:44:00,
2013-10-09 08:49:00,41.9,37.4,30.00,NNW,337,0.0,2.0,84,0.00,,CLR,0.00,62.00,VWS V14.00,2013-10-09 13:49:00,
2013-10-09 08:54:00,42.2,37.7,30.00,NNW,337,0.0,2.0,84,0.00,,CLR,0.00,70.00,VWS V14.00,2013-10-09 13:54:00,
2013-10-09 08:59:00,42.5,37.7,30.01,NNW,337,0.0,2.0,83,0.00,,CLR,0.00,60.00,VWS V14.00,2013-10-09 13:59:00,
2013-10-09 09:04:00,42.7,37.9,30.01,NNW,337,2.0,2.0,83,0.00,,CLR,0.00,139.00,VWS V14.00,2013-10-09 14:04:00,
2013-10-09 09:09:00,43.1,38.9,30.01,NNW,337,1.0,3.0,85,0.00,,CLR,0.00,178.00,VWS V14.00,2013-10-09 14:09:00,
2013-10-09 09:14:00,43.7,39.2,30.01,NNW,337,2.0,3.0,84,0.00,,CLR,0.00,192.00,VWS V14.00,2013-10-09 14:14:00,
2013-10-09 09:19:00,44.3,40.4,30.01,NNW,337,2.0,3.0,86,0.00,,CLR,0.00,213.00,VWS V14.00,2013-10-09 14:19:00,
2013-10-09 09:24:00,44.9,40.7,30.02,NNW,337,2.0,3.0,85,0.00,,CLR,0.00,234.00,VWS V14.00,2013-10-09 14:24:00,
2013-10-09 09:29:00,45.2,40.3,30.02,NNW,337,1.0,1.0,83,0.00,,CLR,0.00,250.00,VWS V14.00,2013-10-09 14:29:00,
2013-10-09 09:34:00,45.7,40.8,30.02,NNW,337,2.0,3.0,83,0.00,,CLR,0.00,244.00,VWS V14.00,2013-10-09 14:34:00,
2013-10-09 09:39:00,46.2,41.6,30.02,NNW,337,1.0,3.0,84,0.00,,CLR,0.00,278.00,VWS V14.00,2013-10-09 14:39:00,
2013-10-09 09:44:00,46.8,41.9,30.02,NNW,337,1.0,3.0,83,0.00,,CLR,0.00,244.00,VWS V14.00,2013-10-09 14:44:00,
2013-10-09 09:49:00,47.4,41.9,30.02,NNW,337,3.0,4.0,81,0.00,,CLR,0.00,265.00,VWS V14.00,2013-10-09 14:49:00,
2013-10-09 09:54:00,47.9,41.4,30.02,NNW,337,3.0,4.0,78,0.00,,CLR,0.00,288.00,VWS V14.00,2013-10-09 14:54:00,
2013-10-09 09:59:00,48.5,42.0,30.02,NNW,337,3.0,4.0,78,0.00,,CLR,0.00,316.00,VWS V14.00,2013-10-09 14:59:00,
2013-10-09 10:05:00,49.1,42.5,30.02,NNW,337,2.0,4.0,78,0.00,,CLR,0.00,336.00,VWS V14.00,2013-10-09 15:05:00,
2013-10-09 10:10:00,49.7,43.1,30.02,NNW,337,3.0,4.0,78,0.00,,CLR,0.00,338.00,VWS V14.00,2013-10-09 15:10:00,
2013-10-09 10:15:00,50.4,43.5,30.02,NNW,337,2.0,5.0,77,0.00,,CLR,0.00,346.00,VWS V14.00,2013-10-09 15:15:00,
2013-10-09 10:20:00,51.0,43.0,30.03,NNW,337,4.0,5.0,74,0.00,,CLR,0.00,309.00,VWS V14.00,2013-10-09 15:20:00,
2013-10-09 10:25:00,51.5,43.5,30.03,NNW,337,4.0,5.0,74,0.00,,CLR,0.00,236.00,VWS V14.00,2013-10-09 15:25:00,
2013-10-09 10:30:00,52.0,43.6,30.03,NNW,337,2.0,4.0,73,0.00,,CLR,0.00,283.00,VWS V14.00,2013-10-09 15:30:00,
2013-10-09 10:35:00,52.4,43.7,30.03,NNW,337,4.0,4.0,72,0.00,,CLR,0.00,218.00,VWS V14.00,2013-10-09 15:35:00,
2013-10-09 10:40:00,52.5,43.8,30.03,NNW,337,2.0,4.0,72,0.00,,CLR,0.00,174.00,VWS V14.00,2013-10-09 15:40:00,
2013-10-09 10:45:00,52.7,43.6,30.03,NNW,337,3.0,4.0,71,0.00,,CLR,0.00,176.00,VWS V14.00,2013-10-09 15:45:00,
2013-10-09 10:50:00,53.0,43.9,30.03,NNW,337,2.0,4.0,71,0.00,,CLR,0.00,230.00,VWS V14.00,2013-10-09 15:50:00,
2013-10-09 10:55:00,53.6,44.8,30.04,NNW,337,1.0,4.0,72,0.00,,CLR,0.00,297.00,VWS V14.00,2013-10-09 15:55:00,
2013-10-09 11:00:00,54.3,45.8,30.04,NNW,337,1.0,1.0,73,0.00,,CLR,0.00,295.00,VWS V14.00,2013-10-09 16:00:00,
2013-10-09 11:05:00,55.1,44.0,30.03,NNW,337,3.0,4.0,66,0.00,,CLR,0.00,316.00,VWS V14.00,2013-10-09 16:05:00,
2013-10-09 11:10:00,56.1,44.1,30.03,NNW,337,2.0,5.0,64,0.00,,CLR,0.00,322.00,VWS V14.00,2013-10-09 16:10:00,
2013-10-09 11:15:00,56.7,43.4,30.03,NNW,337,1.0,6.0,61,0.00,,CLR,0.00,348.00,VWS V14.00,2013-10-09 16:15:00,
2013-10-09 11:20:00,57.4,43.2,30.03,NNW,337,0.0,6.0,59,0.00,,CLR,0.00,232.00,VWS V14.00,2013-10-09 16:20:00,
2013-10-09 11:25:00,57.8,43.6,30.03,NNW,348,4.0,6.0,59,0.00,,CLR,0.00,427.00,VWS V14.00,2013-10-09 16:25:00,
2013-10-09 11:30:00,58.4,42.8,30.03,NNW,347,2.0,5.0,56,0.00,,CLR,0.00,378.00,VWS V14.00,2013-10-09 16:30:00,
2013-10-09 11:35:00,58.8,43.2,30.03,North,355,6.0,7.0,56,0.00,,CLR,0.00,394.00,VWS V14.00,2013-10-09 16:35:00,
2013-10-09 11:40:00,59.2,42.6,30.03,North,355,1.0,7.0,54,0.00,,CLR,0.00,345.00,VWS V14.00,2013-10-09 16:40:00,
2013-10-09 11:45:00,59.6,43.4,30.04,North,355,5.0,8.0,55,0.00,,CLR,0.00,403.00,VWS V14.00,2013-10-09 16:45:00,
2013-10-09 11:50:00,60.2,44.5,30.03,North,355,4.0,8.0,56,0.00,,CLR,0.00,336.00,VWS V14.00,2013-10-09 16:50:00,
2013-10-09 11:55:00,60.6,43.9,30.03,North,355,2.0,8.0,54,0.00,,CLR,0.00,396.00,VWS V14.00,2013-10-09 16:55:00,
2013-10-09 12:00:00,61.0,42.2,30.03,North,355,4.0,4.0,50,0.00,,CLR,0.00,452.00,VWS V14.00,2013-10-09 17:00:00,
2013-10-09 12:05:00,61.6,42.3,30.03,NNW,348,6.0,7.0,49,0.00,,CLR,0.00,471.00,VWS V14.00,2013-10-09 17:05:00,
2013-10-09 12:10:00,61.8,42.5,30.03,North,355,3.0,8.0,49,0.00,,CLR,0.00,397.00,VWS V14.00,2013-10-09 17:10:00,
2013-10-09 12:15:00,62.0,42.6,30.04,NNE,15,4.0,10.0,49,0.00,,CLR,0.00,364.00,VWS V14.00,2013-10-09 17:15:00,
2013-10-09 12:20:00,62.4,41.4,30.04,North,355,7.0,10.0,46,0.00,,CLR,0.00,446.00,VWS V14.00,2013-10-09 17:20:00,
2013-10-09 12:25:00,62.3,40.7,30.03,North,355,6.0,10.0,45,0.00,,CLR,0.00,434.00,VWS V14.00,2013-10-09 17:25:00,
2013-10-09 12:30:00,62.2,41.2,30.03,NNW,346,5.0,5.0,46,0.00,,CLR,0.00,482.00,VWS V14.00,2013-10-09 17:30:00,
2013-10-09 12:35:00,62.6,41.0,30.03,North,355,4.0,6.0,45,0.00,,CLR,0.00,534.00,VWS V14.00,2013-10-09 17:35:00,
2013-10-09 12:40:00,63.2,41.0,30.03,NNW,338,7.0,9.0,44,0.00,,CLR,0.00,628.00,VWS V14.00,2013-10-09 17:40:00,
2013-10-09 12:45:00,63.5,41.8,30.03,NNW,341,5.0,9.0,45,0.00,,CLR,0.00,552.00,VWS V14.00,2013-10-09 17:45:00,
2013-10-09 12:50:00,63.6,42.5,30.03,NNW,341,2.0,9.0,46,0.00,,CLR,0.00,540.00,VWS V14.00,2013-10-09 17:50:00,
2013-10-09 12:55:00,63.4,42.8,30.03,NNW,340,3.0,9.0,47,0.00,,CLR,0.00,499.00,VWS V14.00,2013-10-09 17:55:00,
2013-10-09 13:01:00,63.8,39.7,30.03,North,355,5.0,5.0,41,0.00,,CLR,0.00,589.00,VWS V14.00,2013-10-09 18:01:00,
2013-10-09 13:06:00,64.0,42.8,30.04,NNW,347,6.0,6.0,46,0.00,,CLR,0.00,661.00,VWS V14.00,2013-10-09 18:06:00,
2013-10-09 13:11:00,64.5,42.1,30.03,North,5,4.0,13.0,44,0.00,,CLR,0.00,540.00,VWS V14.00,2013-10-09 18:11:00,
2013-10-09 13:16:00,64.4,41.4,30.03,NNW,327,3.0,13.0,43,0.00,,CLR,0.00,552.00,VWS V14.00,2013-10-09 18:16:00,
2013-10-09 13:21:00,64.3,40.1,30.03,NNW,331,1.0,13.0,41,0.00,,CLR,0.00,615.00,VWS V14.00,2013-10-09 18:21:00,
2013-10-09 13:26:00,64.4,41.4,30.04,NNW,329,8.0,13.0,43,0.00,,CLR,0.00,552.00,VWS V14.00,2013-10-09 18:26:00,
2013-10-09 13:31:00,63.8,41.5,30.04,NNW,339,5.0,10.0,44,0.00,,CLR,0.00,350.00,VWS V14.00,2013-10-09 18:31:00,
2013-10-09 13:36:00,63.8,42.1,30.04,NNW,328,9.0,11.0,45,0.00,,CLR,0.00,538.00,VWS V14.00,2013-10-09 18:36:00,
2013-10-09 13:41:00,64.3,42.5,30.04,NNW,343,10.0,12.0,45,0.00,,CLR,0.00,596.00,VWS V14.00,2013-10-09 18:41:00,
2013-10-09 13:46:00,64.3,40.7,30.03,NNW,329,6.0,12.0,42,0.00,,CLR,0.00,617.00,VWS V14.00,2013-10-09 18:46:00,
2013-10-09 13:51:00,64.5,39.7,30.03,NNW,335,4.0,12.0,40,0.00,,CLR,0.00,606.00,VWS V14.00,2013-10-09 18:51:00,
2013-10-09 13:56:00,64.8,39.3,30.03,North,5,8.0,13.0,39,0.00,,CLR,0.00,598.00,VWS V14.00,2013-10-09 18:56:00,
2013-10-09 14:01:00,65.4,39.8,30.03,NNE,24,10.0,11.0,39,0.00,,CLR,0.00,561.00,VWS V14.00,2013-10-09 19:01:00,
2013-10-09 14:06:00,65.8,37.4,30.03,NE,43,11.0,11.0,35,0.00,,CLR,0.00,503.00,VWS V14.00,2013-10-09 19:06:00,
2013-10-09 14:11:00,65.8,38.1,30.03,North,355,8.0,12.0,36,0.00,,CLR,0.00,582.00,VWS V14.00,2013-10-09 19:11:00,
2013-10-09 14:16:00,66.0,40.4,30.03,North,11,7.0,14.0,39,0.00,,CLR,0.00,462.00,VWS V14.00,2013-10-09 19:16:00,
2013-10-09 14:21:00,66.5,40.8,30.03,NNE,17,10.0,14.0,39,0.00,,CLR,0.00,673.00,VWS V14.00,2013-10-09 19:21:00,
2013-10-09 14:26:00,66.9,40.5,30.03,NNE,24,7.0,14.0,38,0.00,,CLR,0.00,582.00,VWS V14.00,2013-10-09 19:26:00,
2013-10-09 14:31:00,67.1,38.6,30.02,North,360,8.0,10.0,35,0.00,,CLR,0.00,568.00,VWS V14.00,2013-10-09 19:31:00,
2013-10-09 14:36:00,66.7,37.5,30.02,NNE,13,10.0,15.0,34,0.00,,CLR,0.00,422.00,VWS V14.00,2013-10-09 19:36:00,
2013-10-09 14:41:00,66.1,36.9,30.02,North,5,6.0,15.0,34,0.00,,CLR,0.00,271.00,VWS V14.00,2013-10-09 19:41:00,
2013-10-09 14:46:00,65.6,38.0,30.02,NNE,25,6.0,15.0,36,0.00,,CLR,0.00,443.00,VWS V14.00,2013-10-09 19:46:00,
2013-10-09 14:51:00,65.9,38.2,30.02,NNE,26,6.0,15.0,36,0.00,,CLR,0.00,504.00,VWS V14.00,2013-10-09 19:51:00,
2013-10-09 14:57:00,66.3,36.4,30.02,NNE,25,12.0,15.0,33,0.00,,CLR,0.00,526.00,VWS V14.00,2013-10-09 19:57:00,
2013-10-09 15:02:00,66.4,37.2,30.02,NNE,18,7.0,12.0,34,0.00,,CLR,0.00,480.00,VWS V14.00,2013-10-09 20:02:00,
2013-10-09 15:07:00,66.5,38.8,30.01,NNE,21,9.0,12.0,36,0.00,,CLR,0.00,452.00,VWS V14.00,2013-10-09 20:07:00,
2013-10-09 15:12:00,66.2,36.3,30.02,North,350,7.0,12.0,33,0.00,,CLR,0.00,388.00,VWS V14.00,2013-10-09 20:12:00,
2013-10-09 15:17:00,65.7,38.7,30.01,North,5,9.0,12.0,37,0.00,,CLR,0.00,413.00,VWS V14.00,2013-10-09 20:17:00,
2013-10-09 15:22:00,65.7,40.1,30.01,NNE,19,6.0,13.0,39,0.00,,CLR,0.00,462.00,VWS V14.00,2013-10-09 20:22:00,
2013-10-09 15:27:00,66.3,39.3,30.01,North,5,5.0,13.0,37,0.00,,CLR,0.00,499.00,VWS V14.00,2013-10-09 20:27:00,
2013-10-09 15:32:00,66.8,38.3,30.01,NNE,32,8.0,10.0,35,0.00,,CLR,0.00,538.00,VWS V14.00,2013-10-09 20:32:00,
2013-10-09 15:37:00,67.1,37.8,30.01,North,11,10.0,14.0,34,0.00,,CLR,0.00,494.00,VWS V14.00,2013-10-09 20:37:00,
2013-10-09 15:42:00,66.8,37.6,30.00,North,360,6.0,14.0,34,0.00,,CLR,0.00,376.00,VWS V14.00,2013-10-09 20:42:00,
2013-10-09 15:47:00,66.5,38.0,30.00,North,11,9.0,17.0,35,0.00,,CLR,0.00,425.00,VWS V14.00,2013-10-09 20:47:00,
2013-10-09 15:52:00,66.7,38.9,30.00,NNE,22,10.0,17.0,36,0.00,,CLR,0.00,496.00,VWS V14.00,2013-10-09 20:52:00,
2013-10-09 15:57:00,66.8,36.0,30.00,NNE,31,8.0,17.0,32,0.00,,CLR,0.00,455.00,VWS V14.00,2013-10-09 20:57:00,
2013-10-09 16:02:00,66.8,35.2,30.00,NE,35,4.0,11.0,31,0.00,,CLR,0.00,308.00,VWS V14.00,2013-10-09 21:02:00,
2013-10-09 16:07:00,66.5,36.5,30.00,NNE,13,6.0,13.0,33,0.00,,CLR,0.00,276.00,VWS V14.00,2013-10-09 21:07:00,
2013-10-09 16:12:00,66.2,37.8,30.00,North,10,11.0,14.0,35,0.00,,CLR,0.00,360.00,VWS V14.00,2013-10-09 21:12:00,
2013-10-09 16:17:00,66.1,39.1,30.01,North,5,10.0,14.0,37,0.00,,CLR,0.00,378.00,VWS V14.00,2013-10-09 21:17:00,
2013-10-09 16:22:00,65.9,38.2,30.00,NNE,20,9.0,15.0,36,0.00,,CLR,0.00,304.00,VWS V14.00,2013-10-09 21:22:00,
2013-10-09 16:27:00,65.9,38.9,30.00,NE,34,4.0,15.0,37,0.00,,CLR,0.00,323.00,VWS V14.00,2013-10-09 21:27:00,
2013-10-09 16:32:00,66.0,37.6,30.00,NE,39,4.0,8.0,35,0.00,,CLR,0.00,345.00,VWS V14.00,2013-10-09 21:32:00,
2013-10-09 16:37:00,66.3,38.6,30.00,NE,37,7.0,10.0,36,0.00,,CLR,0.00,285.00,VWS V14.00,2013-10-09 21:37:00,
2013-10-09 16:42:00,66.2,39.9,30.00,NNE,24,10.0,12.0,38,0.00,,CLR,0.00,264.00,VWS V14.00,2013-10-09 21:42:00,
2013-10-09 16:47:00,65.9,38.2,30.00,NNE,30,8.0,12.0,36,0.00,,CLR,0.00,218.00,VWS V14.00,2013-10-09 21:47:00,
2013-10-09 16:52:00,65.6,38.0,30.00,NNE,23,8.0,12.0,36,0.00,,CLR,0.00,209.00,VWS V14.00,2013-10-09 21:52:00,
2013-10-09 16:57:00,65.3,40.4,30.00,North,5,4.0,12.0,40,0.00,,CLR,0.00,227.00,VWS V14.00,2013-10-09 21:57:00,
2013-10-09 17:02:00,65.0,38.8,30.00,North,5,6.0,9.0,38,0.00,,CLR,0.00,183.00,VWS V14.00,2013-10-09 22:02:00,
2013-10-09 17:07:00,64.8,40.6,30.00,North,5,7.0,9.0,41,0.00,,CLR,0.00,162.00,VWS V14.00,2013-10-09 22:07:00,
2013-10-09 17:12:00,64.5,39.7,30.00,North,5,5.0,9.0,40,0.00,,CLR,0.00,156.00,VWS V14.00,2013-10-09 22:12:00,
2013-10-09 17:17:00,64.3,40.1,30.00,North,5,4.0,9.0,41,0.00,,CLR,0.00,144.00,VWS V14.00,2013-10-09 22:17:00,
2013-10-09 17:22:00,64.1,41.2,30.00,North,5,4.0,9.0,43,0.00,,CLR,0.00,148.00,VWS V14.00,2013-10-09 22:22:00,
2013-10-09 17:27:00,64.0,39.8,30.00,NNE,27,4.0,9.0,41,0.00,,CLR,0.00,158.00,VWS V14.00,2013-10-09 22:27:00,
2013-10-09 17:32:00,64.0,39.8,30.00,NNE,28,4.0,6.0,41,0.00,,CLR,0.00,190.00,VWS V14.00,2013-10-09 22:32:00,
2013-10-09 17:37:00,64.2,39.4,30.00,NNE,32,3.0,8.0,40,0.00,,CLR,0.00,251.00,VWS V14.00,2013-10-09 22:37:00,
2013-10-09 17:42:00,64.4,38.9,30.00,NE,47,5.0,9.0,39,0.00,,CLR,0.00,172.00,VWS V14.00,2013-10-09 22:42:00,
2013-10-09 17:48:00,64.4,38.9,30.01,NE,47,5.0,9.0,39,0.00,,CLR,0.00,121.00,VWS V14.00,2013-10-09 22:48:00,
2013-10-09 17:53:00,64.1,39.3,30.00,NE,47,5.0,9.0,40,0.00,,CLR,0.00,114.00,VWS V14.00,2013-10-09 22:53:00,
2013-10-09 17:58:00,63.8,40.9,30.00,NE,47,5.0,9.0,43,0.00,,CLR,0.00,102.00,VWS V14.00,2013-10-09 22:58:00,
2013-10-09 18:03:00,63.4,40.5,30.00,NE,47,4.0,7.0,43,0.00,,CLR,0.00,100.00,VWS V14.00,2013-10-09 23:03:00,
2013-10-09 18:08:00,63.1,40.3,30.00,NE,47,4.0,7.0,43,0.00,,CLR,0.00,84.00,VWS V14.00,2013-10-09 23:08:00,
2013-10-09 18:13:00,62.7,39.9,30.00,NE,47,3.0,7.0,43,0.00,,CLR,0.00,77.00,VWS V14.00,2013-10-09 23:13:00,
2013-10-09 18:18:00,62.3,39.5,30.00,NE,47,4.0,7.0,43,0.00,,CLR,0.00,62.00,VWS V14.00,2013-10-09 23:18:00,
2013-10-09 18:23:00,61.8,40.3,30.00,NE,47,5.0,7.0,45,0.00,,CLR,0.00,47.00,VWS V14.00,2013-10-09 23:23:00,
2013-10-09 18:28:00,61.3,40.4,30.00,NE,47,5.0,7.0,46,0.00,,CLR,0.00,32.00,VWS V14.00,2013-10-09 23:28:00,
2013-10-09 18:33:00,60.6,39.7,30.00,NE,44,4.0,7.0,46,0.00,,CLR,0.00,26.00,VWS V14.00,2013-10-09 23:33:00,
2013-10-09 18:38:00,60.1,39.3,30.00,NE,44,5.0,7.0,46,0.00,,CLR,0.00,25.00,VWS V14.00,2013-10-09 23:38:00,
2013-10-09 18:43:00,59.8,39.0,30.00,NE,44,6.0,7.0,46,0.00,,CLR,0.00,21.00,VWS V14.00,2013-10-09 23:43:00,
2013-10-09 18:48:00,59.4,38.6,30.01,NE,44,3.0,7.0,46,0.00,,CLR,0.00,18.00,VWS V14.00,2013-10-09 23:48:00,
2013-10-09 18:53:00,59.0,39.4,30.01,NE,44,5.0,7.0,48,0.00,,CLR,0.00,14.00,VWS V14.00,2013-10-09 23:53:00,
2013-10-09 18:58:00,58.6,39.0,30.00,NE,44,5.0,7.0,48,0.00,,CLR,0.00,9.00,VWS V14.00,2013-10-09 23:58:00,
2013-10-09 19:03:00,58.3,38.7,30.01,NE,44,5.0,6.0,48,0.00,,CLR,0.00,0.00,VWS V14.00,2013-10-10 00:03:00,
2013-10-09 19:08:00,58.0,39.0,30.01,NE,44,5.0,6.0,49,0.00,,CLR,0.00,0.00,VWS V14.00,2013-10-10 00:08:00,
2013-10-09 19:13:00,57.7,38.7,30.01,NE,44,4.0,6.0,49,0.00,,CLR,0.00,0.00,VWS V14.00,2013-10-10 00:13:00,
2013-10-09 19:18:00,57.4,38.4,30.01,NE,45,6.0,7.0,49,0.00,,CLR,0.00,0.00,VWS V14.00,2013-10-10 00:18:00,
2013-10-09 19:23:00,57.1,38.1,30.01,NE,46,5.0,7.0,49,0.00,,CLR,0.00,0.00,VWS V14.00,2013-10-10 00:23:00,
2013-10-09 19:28:00,56.8,37.9,30.01,NE,46,6.0,7.0,49,0.00,,CLR,0.00,0.00,VWS V14.00,2013-10-10 00:28:00,
2013-10-09 19:33:00,56.6,38.2,30.01,NE,46,7.0,7.0,50,0.00,,CLR,0.00,0.00,VWS V14.00,2013-10-10 00:33:00,
2013-10-09 19:38:00,56.2,37.8,30.01,NE,43,5.0,8.0,50,0.00,,CLR,0.00,0.00,VWS V14.00,2013-10-10 00:38:00,
2013-10-09 19:43:00,55.6,37.8,30.01,NE,41,8.0,9.0,51,0.00,,CLR,0.00,0.00,VWS V14.00,2013-10-10 00:43:00,
2013-10-09 19:48:00,55.1,37.8,30.01,NE,36,10.0,10.0,52,0.00,,CLR,0.00,0.00,VWS V14.00,2013-10-10 00:48:00,
2013-10-09 19:53:00,54.8,38.0,30.01,NE,36,8.0,10.0,53,0.00,,CLR,0.00,0.00,VWS V14.00,2013-10-10 00:53:00,
2013-10-09 19:58:00,54.6,38.3,30.01,NE,34,7.0,10.0,54,0.00,,CLR,0.00,0.00,VWS V14.00,2013-10-10 00:58:00,
2013-10-09 20:04:00,54.5,38.2,30.00,NE,36,8.0,10.0,54,0.00,,CLR,0.00,0.00,VWS V14.00,2013-10-10 01:04:00,
2013-10-09 20:09:00,54.4,38.1,30.00,NE,36,8.0,10.0,54,0.00,,CLR,0.00,0.00,VWS V14.00,2013-10-10 01:09:00,
2013-10-09 20:14:00,54.3,38.0,30.00,NE,39,6.0,10.0,54,0.00,,CLR,0.00,0.00,VWS V14.00,2013-10-10 01:14:00,
2013-10-09 20:19:00,54.1,37.8,30.01,NE,40,6.0,10.0,54,0.00,,CLR,0.00,0.00,VWS V14.00,2013-10-10 01:19:00,
2013-10-09 20:24:00,53.9,38.1,30.01,NE,40,6.0,10.0,55,0.00,,CLR,0.00,0.00,VWS V14.00,2013-10-10 01:24:00,
2013-10-09 20:29:00,53.6,37.8,30.01,NE,43,8.0,10.0,55,0.00,,CLR,0.00,0.00,VWS V14.00,2013-10-10 01:29:00,
2013-10-09 20:34:00,53.5,37.8,30.01,NE,44,5.0,9.0,55,0.00,,CLR,0.00,0.00,VWS V14.00,2013-10-10 01:34:00,
2013-10-09 20:39:00,53.2,37.9,30.01,NE,44,6.0,9.0,56,0.00,,CLR,0.00,0.00,VWS V14.00,2013-10-10 01:39:00,
2013-10-09 20:44:00,53.2,37.0,30.01,NE,44,6.0,9.0,54,0.00,,,0.00,0.00,VWS V14.00,2013-10-10 01:44:00,
2013-10-09 20:49:00,53.3,37.1,30.01,NE,44,5.0,9.0,54,0.00,,,0.00,0.00,VWS V14.00,2013-10-10 01:49:00,
2013-10-09 20:54:00,53.5,36.8,30.01,NE,45,6.0,9.0,53,0.00,,,0.00,0.00,VWS V14.00,2013-10-10 01:54:00,
2013-10-09 20:59:00,53.4,36.7,30.01,NE,46,5.0,9.0,53,0.00,,,0.00,0.00,VWS V14.00,2013-10-10 01:59:00,
2013-10-09 21:04:00,53.4,36.7,30.01,NE,47,6.0,7.0,53,0.00,,,0.00,0.00,VWS V14.00,2013-10-10 02:04:00,
2013-10-09 21:09:00,53.4,36.2,30.01,NE,48,6.0,8.0,52,0.00,,,0.00,0.00,VWS V14.00,2013-10-10 02:09:00,
2013-10-09 21:14:00,53.5,36.3,30.01,NE,51,4.0,9.0,52,0.00,,,0.00,0.00,VWS V14.00,2013-10-10 02:14:00,
2013-10-09 21:19:00,53.7,36.5,30.01,NE,51,5.0,9.0,52,0.00,,,0.00,0.00,VWS V14.00,2013-10-10 02:19:00,
2013-10-09 21:24:00,53.7,37.0,30.01,NE,51,6.0,9.0,53,0.00,,,0.00,0.00,VWS V14.00,2013-10-10 02:24:00,
2013-10-09 21:29:00,53.3,36.1,30.02,NE,50,6.0,9.0,52,0.00,,,0.00,0.00,VWS V14.00,2013-10-10 02:29:00,
2013-10-09 21:34:00,53.3,36.1,30.01,NE,49,8.0,10.0,52,0.00,,,0.00,0.00,VWS V14.00,2013-10-10 02:34:00,
2013-10-09 21:39:00,53.5,36.3,30.01,NE,51,8.0,10.0,52,0.00,,,0.00,0.00,VWS V14.00,2013-10-10 02:39:00,
2013-10-09 21:44:00,53.4,36.2,30.01,NE,51,7.0,10.0,52,0.00,,CLR,0.00,0.00,VWS V14.00,2013-10-10 02:44:00,
2013-10-09 21:49:00,53.3,36.1,30.01,NE,52,7.0,10.0,52,0.00,,CLR,0.00,0.00,VWS V14.00,2013-10-10 02:49:00,
2013-10-09 21:54:00,53.2,36.0,30.00,NE,52,6.0,10.0,52,0.00,,CLR,0.00,0.00,VWS V14.00,2013-10-10 02:54:00,
2013-10-09 21:59:00,53.2,36.0,30.00,NE,52,7.0,10.0,52,0.00,,CLR,0.00,0.00,VWS V14.00,2013-10-10 02:59:00,
2013-10-09 22:04:00,53.2,35.6,30.00,NE,52,6.0,8.0,51,0.00,,CLR,0.00,0.00,VWS V14.00,2013-10-10 03:04:00,
2013-10-09 22:09:00,53.2,35.6,30.00,NE,53,5.0,8.0,51,0.00,,CLR,0.00,0.00,VWS V14.00,2013-10-10 03:09:00,
2013-10-09 22:14:00,53.2,35.6,30.00,NE,53,6.0,8.0,51,0.00,,CLR,0.00,0.00,VWS V14.00,2013-10-10 03:14:00,
2013-10-09 22:19:00,53.3,35.7,30.00,NE,53,7.0,8.0,51,0.00,,CLR,0.00,0.00,VWS V14.00,2013-10-10 03:19:00,
2013-10-09 22:24:00,53.4,35.7,30.00,NE,53,5.0,8.0,51,0.00,,CLR,0.00,0.00,VWS V14.00,2013-10-10 03:24:00,
2013-10-09 22:29:00,53.4,35.2,30.00,NE,53,6.0,7.0,50,0.00,,CLR,0.00,0.00,VWS V14.00,2013-10-10 03:29:00,
2013-10-09 22:34:00,53.4,35.2,30.00,NE,53,6.0,8.0,50,0.00,,CLR,0.00,0.00,VWS V14.00,2013-10-10 03:34:00,
2013-10-09 22:39:00,53.5,35.3,29.99,NE,53,6.0,8.0,50,0.00,,CLR,0.00,0.00,VWS V14.00,2013-10-10 03:39:00,
2013-10-09 22:44:00,53.4,35.7,30.00,NE,53,6.0,8.0,51,0.00,,CLR,0.00,0.00,VWS V14.00,2013-10-10 03:44:00,
2013-10-09 22:49:00,53.4,35.7,30.00,NE,53,5.0,8.0,51,0.00,,CLR,0.00,0.00,VWS V14.00,2013-10-10 03:49:00,
2013-10-09 22:54:00,53.3,35.7,30.00,NE,53,6.0,8.0,51,0.00,,CLR,0.00,0.00,VWS V14.00,2013-10-10 03:54:00,
2013-10-09 23:00:00,53.2,35.6,30.00,NE,54,6.0,6.0,51,0.00,,CLR,0.00,0.00,VWS V14.00,2013-10-10 04:00:00,
2013-10-09 23:02:00,53.3,36.1,30.00,NE,54,7.0,8.0,52,0.00,,CLR,0.00,0.00,VWS V14.00,2013-10-10 04:02:00,
2013-10-09 23:03:00,53.2,36.0,30.00,NE,54,7.0,8.0,52,0.00,,CLR,0.00,0.00,VWS V14.00,2013-10-10 04:03:00,
2013-10-09 23:06:00,53.2,36.0,29.99,NE,54,4.0,8.0,52,0.00,,CLR,0.00,0.00,VWS V14.00,2013-10-10 04:06:00,
2013-10-09 23:08:00,53.3,36.1,29.99,NE,54,3.0,8.0,52,0.00,,CLR,0.00,0.00,VWS V14.00,2013-10-10 04:08:00,
2013-10-09 23:10:00,53.3,36.1,29.99,NE,54,3.0,8.0,52,0.00,,CLR,0.00,0.00,VWS V14.00,2013-10-10 04:10:00,
2013-10-09 23:15:00,53.3,36.1,30.00,NE,54,5.0,8.0,52,0.00,,CLR,0.00,0.00,VWS V14.00,2013-10-10 04:15:00,
2013-10-09 23:20:00,53.4,35.7,29.99,NE,55,5.0,8.0,51,0.00,,CLR,0.00,0.00,VWS V14.00,2013-10-10 04:20:00,
2013-10-09 23:21:00,53.5,36.3,29.99,NE,55,7.0,8.0,52,0.00,,CLR,0.00,0.00,VWS V14.00,2013-10-10 04:21:00,
2013-10-09 23:26:00,53.8,36.1,29.99,ENE,57,4.0,8.0,51,0.00,,CLR,0.00,0.00,VWS V14.00,2013-10-10 04:26:00,
2013-10-09 23:31:00,53.9,36.2,29.99,ENE,61,7.0,9.0,51,0.00,,CLR,0.00,0.00,VWS V14.00,2013-10-10 04:31:00,
2013-10-09 23:36:00,53.9,36.2,29.99,ENE,63,5.0,10.0,51,0.00,,CLR,0.00,0.00,VWS V14.00,2013-10-10 04:36:00,
2013-10-09 23:41:00,53.8,36.1,29.99,ENE,65,8.0,10.0,51,0.00,,CLR,0.00,0.00,VWS V14.00,2013-10-10 04:41:00,
2013-10-09 23:46:00,53.7,36.0,29.99,ENE,70,8.0,10.0,51,0.00,,CLR,0.00,0.00,VWS V14.00,2013-10-10 04:46:00,
2013-10-09 23:51:00,53.7,35.5,29.98,ENE,67,9.0,11.0,50,0.00,,CLR,0.00,0.00,VWS V14.00,2013-10-10 04:51:00,
2013-10-09 23:56:00,53.9,35.7,29.98,ENE,68,8.0,12.0,50,0.00,,CLR,0.00,0.00,VWS V14.00,2013-10-10 04:56:00,